Regional Weather Roundup
Issued by NWS

Home | Current Version | Previous Version | Graphics & Text | Print | Product List | Glossary On
Versions: 1 2 3 4 5 6 7 8 9 10 11 12 13 14 15 16 17 18 19 20 21 22 23 24 25 26 27 28 29 30 31 32 33 34 35 36 37 38 39 40 41 42 43
000
ASUS45 KBOI 272110
RWRID
WEATHER ROUNDUP FOR IDAHO
NATIONAL WEATHER SERVICE BOISE ID
200 PM MST SAT DEC 27 2014

NOTE: "FAIR" INDICATES FEW OR NO CLOUDS BELOW 12000 FEET
WITH NO SIGNIFICANT WEATHER AND/OR OBSTRUCTIONS TO VISIBILITY

IDZ012-014-272200-
SOUTHWEST IDAHO


CITY           SKY/WX    TMP DP  RH WIND       PRES   REMARKS
BOISE          CLOUDY    32  19  58 SE12      30.26F WCI  23
CALDWELL       CLOUDY    34  19  55 E10       30.29F WCI  26
MOUNTAIN HOME  CLOUDY    33  23  66 E10       30.27F WCI  25
$$

IDZ016-017-272200-
SOUTHCENTRAL IDAHO


CITY           SKY/WX    TMP DP  RH WIND       PRES   REMARKS
BURLEY         CLOUDY    29  17  61 S15       30.23F WCI  18
JEROME         CLOUDY    27  20  75 CALM      30.25F
TWIN FALLS     PTSUNNY   32  16  51 S14       30.24F WCI  22
$$

IDZ019>023-272200-
SOUTHEAST IDAHO


CITY           SKY/WX    TMP DP  RH WIND       PRES   REMARKS
IDAHO FALLS    CLOUDY    17  13  84 CALM      30.23F
POCATELLO      CLOUDY    28  18  66 SW10      30.25S WCI  19
REXBURG        CLOUDY    16  14  92 W3        30.21F
$$

IDZ006-010-011-018-031-032-272200-
CENTRAL IDAHO MOUNTAINS


CITY           SKY/WX    TMP DP  RH WIND       PRES   REMARKS
MCCALL         LGT SNOW  18  15  88 CALM      30.14F VSB 1
HAILEY         CLOUDY    18   5  57 CALM      30.20F
STANLEY          N/A      8   1  73 CALM      30.13F
SALMON         CLOUDY    21  10  63 CALM      30.17F
CHALLIS        CLOUDY    16   5  62 CALM      30.16F
$$

IDZ002-004-006-007-026-272200-
NORTHERN IDAHO


CITY           SKY/WX    TMP DP  RH WIND       PRES   REMARKS
LEWISTON       CLOUDY    36  29  75 VRB3      30.11F
LOWELL           N/A     33  31  92 CALM      30.21F
COEUR D`ALENE  CLOUDY    32  28  86 S8        30.02F WCI  25
MULLAN PASS    LGT SNOW  22  18  85 VRB5      29.91F VSB 3/4 WCI  16
$$


USA.gov is the U.S. government's official web portal to all federal, state and local government web resources and services.